COSMOS 2251 DEB, 38054

Orbit data source: Space-Track

COSMOS 2251 DEB, 38054 is space debris in LEO originally from a launch on Wed, 16 Jun 1993 UTC launched from the Plesetsk Missile And Space Complex (PKMTR). The debris from Iridium 33, an American commercial communications satellite, has been tracked extensively since its accidental collision with the defunct Russian satellite Cosmos 2251 in 2009. This event, occurring at high speed in low Earth orbit (LEO), generated thousands of pieces of space debris, significantly increasing the risk of further collisions. The Iridium 33 debris cloud has impacted space traffic management and orbital debris mitigation strategies, making it a subject of ongoing study in space situational awareness.

Loading next visibility...
Identifier
38054, 1993-036BRL
Orbit
LEO
Country
Flag of CISCIS
Related business
Manufacturer
Unknown
Mission
Spacecraft
Bus & Motor
Unknown
Mass
Unknown
Launch date (UTC)
1993-06-16 (33 years ago)
Launch vehicle
Unknown
Launch site
Plesetsk Missile And Space Complex (PKMTR)
Object type
Payload
Rocket body
Debris
Shape & HBR
Unknown shape, 0.1 m
Radar Cross Section
Medium (>0.1 m² and <1 m²)

Expand to show TLE details & history
Last TLE update: 9 hours ago

TLE from 9 hours ago
0 COSMOS 2251 DEB
1 38054U 93036BRL 26207.61533792  .00002422  00000-0  20485-2 0  9995
2 38054  73.9514 255.8334 0348401 190.0950 329.4481 13.63643400702577
Epoch: 2026-07-26T14:46Z
TLE epoch observation values (Epoch: 2026-07-26T14:46:05.196Z)
Latitude
21.6601°
Longitude
-96.52375°
Altitude
805.104 km
Speed
7.563 km/s
True Right ascension
04h 37m 14s
True Declination
21° 32' 35"
Sunlit
Object was in daylight at epoch
Visualization orbit readout
Latitude
Unknown
Longitude
Unknown
Altitude
Unknown
Speed
Unknown
Apparent Right ascension
Unknown
Apparent Declination
Unknown
Sunlit
N/A
Visualization observer readout
Local Sidereal Time
12:55:28
Azimuth
Unknown
Elevation
Unknown
Doppler factor
Unknown
Orbital elements
Apogee altitude
1,277.947 km
Perigee altitude
762.43 km
Semi-major axis
7,398.325 km
Eccentricity
0.03484
Inclination
73.9514°
RAAN
255.8334°
Arg. of periapsis
190.095°
True anomaly
327.34023°
Mean anomaly
329.4481°
Eccentric anomaly
328.40219°
Mean motion
3.4107 °/min
Orbital period
105.55 mins
BSTAR
0.0020485

Documentation

Showing up to 5 results
|